TimeEST,TemperatureF,Dew PointF,Humidity,Sea Level PressureIn,VisibilityMPH,Wind Direction,Wind SpeedMPH,Gust SpeedMPH,PrecipitationIn,Events,Conditions,WindDirDegrees,DateUTC
12:11 AM,30.2,26.6,86,29.78,5.0,NW,8.1,17.3,0.00,Snow,Light Snow,310,2013-03-01 05:11:00
12:43 AM,30.2,26.6,86,29.79,7.0,WNW,9.2,-,0.00,Snow,Light Snow,300,2013-03-01 05:43:00
12:51 AM,30.9,26.1,82,29.86,8.0,NW,9.2,-,0.00,Snow,Light Snow,310,2013-03-01 05:51:00
1:09 AM,30.2,26.6,86,29.79,6.0,NW,5.8,-,0.00,Snow,Light Snow,310,2013-03-01 06:09:00
1:51 AM,30.9,27.0,85,29.87,10.0,Variable,6.9,-,0.00,,Overcast,0,2013-03-01 06:51:00
2:22 AM,30.2,26.6,86,29.79,7.0,NNW,5.8,-,0.00,Snow,Light Snow,330,2013-03-01 07:22:00
2:33 AM,30.2,26.6,86,29.79,5.0,WNW,4.6,-,0.00,Snow,Light Snow,300,2013-03-01 07:33:00
2:51 AM,30.9,26.1,82,29.85,8.0,WNW,8.1,-,0.00,Snow,Light Snow,300,2013-03-01 07:51:00
2:57 AM,30.2,26.6,86,29.79,1.8,NW,9.2,-,0.00,Snow,Light Snow,320,2013-03-01 07:57:00
3:06 AM,30.2,26.6,86,29.79,2.0,NW,5.8,-,0.01,Snow,Light Snow,320,2013-03-01 08:06:00
3:13 AM,30.2,26.6,86,29.79,9.0,NW,6.9,-,0.01,,Overcast,310,2013-03-01 08:13:00
3:51 AM,30.0,24.1,79,29.86,10.0,NNW,12.7,18.4,0.01,,Overcast,330,2013-03-01 08:51:00
3:58 AM,30.2,24.8,80,29.79,10.0,NW,6.9,18.4,N/A,,Overcast,320,2013-03-01 08:58:00
4:51 AM,28.9,23.0,78,29.87,10.0,WNW,8.1,-,N/A,,Overcast,300,2013-03-01 09:51:00
5:16 AM,28.4,24.8,86,29.80,10.0,NW,5.8,-,N/A,,Overcast,320,2013-03-01 10:16:00
5:51 AM,28.9,23.0,78,29.87,9.0,NW,6.9,-,0.00,Snow,Light Snow,320,2013-03-01 10:51:00
5:58 AM,28.4,23.0,80,29.80,9.0,NW,6.9,-,0.00,,Overcast,310,2013-03-01 10:58:00
6:16 AM,28.4,23.0,80,29.80,10.0,NW,8.1,-,0.00,,Overcast,310,2013-03-01 11:16:00
6:51 AM,28.9,23.0,78,29.88,10.0,NW,6.9,-,0.00,,Overcast,310,2013-03-01 11:51:00
7:14 AM,28.4,23.0,80,29.82,10.0,NW,10.4,-,N/A,,Overcast,310,2013-03-01 12:14:00
7:51 AM,28.9,23.0,78,29.91,5.0,NNW,5.8,-,0.00,Snow,Light Snow,330,2013-03-01 12:51:00
8:40 AM,28.4,24.8,86,29.84,2.5,WNW,5.8,-,0.00,Snow,Light Snow,300,2013-03-01 13:40:00
8:51 AM,28.9,24.1,82,29.92,3.0,WNW,6.9,-,0.00,Snow,Light Snow,290,2013-03-01 13:51:00
9:16 AM,28.4,23.0,80,29.84,6.0,NW,6.9,-,0.00,Snow,Light Snow,310,2013-03-01 14:16:00
9:51 AM,28.9,23.0,78,29.91,6.0,NW,10.4,-,0.00,,Haze,310,2013-03-01 14:51:00
10:51 AM,28.9,23.0,78,29.92,5.0,NNW,9.2,-,0.00,Snow,Light Snow,330,2013-03-01 15:51:00
11:51 AM,28.9,21.9,75,29.94,4.0,NW,6.9,-,0.00,Snow,Light Snow,310,2013-03-01 16:51:00
12:30 PM,30.2,21.2,69,29.86,7.0,NW,8.1,-,0.00,Snow,Light Snow,310,2013-03-01 17:30:00
12:51 PM,30.0,21.9,72,29.92,9.0,NNW,6.9,-,0.00,,Overcast,330,2013-03-01 17:51:00
1:51 PM,30.0,21.9,72,29.91,3.0,NW,10.4,-,0.00,Snow,Light Snow,310,2013-03-01 18:51:00
2:05 PM,30.2,21.2,69,29.84,2.0,NNW,9.2,-,0.00,Snow,Light Snow,330,2013-03-01 19:05:00
2:25 PM,30.2,21.2,69,29.84,3.0,NW,6.9,-,0.00,Snow,Light Snow,310,2013-03-01 19:25:00
2:51 PM,28.9,21.9,75,29.91,5.0,WNW,9.2,-,0.00,Snow,Light Snow,300,2013-03-01 19:51:00
2:58 PM,30.2,21.2,69,29.84,5.0,NW,6.9,-,0.00,Snow,Light Snow,310,2013-03-01 19:58:00
3:51 PM,28.9,19.9,69,29.92,6.0,NW,8.1,-,0.00,Snow,Light Snow,310,2013-03-01 20:51:00
4:42 PM,28.4,19.4,69,29.85,8.0,WNW,9.2,-,0.00,Snow,Light Snow,300,2013-03-01 21:42:00
4:51 PM,28.9,21.0,72,29.93,7.0,WNW,8.1,-,0.00,Snow,Light Snow,300,2013-03-01 21:51:00
5:06 PM,28.4,21.2,74,29.85,6.0,NW,6.9,-,0.00,Snow,Light Snow,310,2013-03-01 22:06:00
5:51 PM,28.9,21.9,75,29.94,5.0,NW,8.1,-,0.00,Snow,Light Snow,320,2013-03-01 22:51:00
6:51 PM,28.0,21.0,75,29.96,6.0,NW,8.1,-,0.00,Snow,Light Snow,320,2013-03-01 23:51:00
7:51 PM,27.0,19.9,75,29.97,5.0,Calm,Calm,-,0.00,Snow,Light Snow,0,2013-03-02 00:51:00
8:42 PM,26.6,21.2,80,29.90,6.0,Calm,Calm,-,0.00,Snow,Light Snow,0,2013-03-02 01:42:00
8:51 PM,27.0,21.0,78,29.98,7.0,NW,4.6,-,0.00,Snow,Light Snow,310,2013-03-02 01:51:00
9:13 PM,26.6,19.4,74,29.89,5.0,NW,8.1,-,0.00,Snow,Light Snow,320,2013-03-02 02:13:00
9:27 PM,26.6,19.4,74,29.90,7.0,WNW,6.9,-,0.00,Snow,Light Snow,300,2013-03-02 02:27:00
9:51 PM,26.1,19.0,75,29.98,5.0,WNW,6.9,-,0.00,Snow,Light Snow,300,2013-03-02 02:51:00
10:51 PM,26.1,19.9,78,29.98,5.0,WNW,5.8,-,0.00,Snow,Light Snow,300,2013-03-02 03:51:00
11:17 PM,24.8,19.4,80,29.89,4.0,NW,4.6,-,0.00,Snow,Light Snow,310,2013-03-02 04:17:00
11:51 PM,25.0,19.9,81,29.97,4.0,NW,4.6,-,0.00,Snow,Light Snow,310,2013-03-02 04:51:00